Find Starlink 31513

NORAD ID: 59529 Int'l Des: 2024-073 Owner: SPXS Country: US Constellation: starlink operational
LEOCIRCULAR

Live Position

Loading 3D Globe...

About Starlink 31513

Description loading...

Upcoming Passes

Passes for default location (London). Set your location on the main map for personalized predictions.

Altitude History

Loading altitude history...

Two-Line Element Set

1 59529U 24073U 26125.64772909 .00002676 00000-0 10674-3 0 9998
2 59529 43.0019 353.1095 0001534 285.3906 74.6776 15.27579243114920
Epoch: May 5, 2026 • Age: 12 hours

Current Status

Altitude 493.0 km
Velocity 7.62 km/s
Sub-Earth Point -37.34°S, 14.33°E
Launch Date Apr 17, 2024
Age 2 years
Type internet

Technical Details

Classification Payload
Mass 730.00 kg
Dry Mass 700.00 kg
Total Mass 730.00 kg
Length 0.30 m
Diameter 4.10 m
Span 29.00 m
Shape Box + pan
Manufacturer SPXS
Bus Type Starlink V2M
Phase Status In Orbit
Owner/State SPXS/US

Most Searched